This demonstration page uses our WeatherBlox Daily Observations layout. Learn more.

Left ArrowRight Arrow

38.80484, -77.04692

Hourly Observations for May 9, 2015

Temp ( °F °C ) Dew Point ( °F °C ) Humidity (%) Winds ( mph kmh ) Pressure ( in mb ) Visibility ( mi km ) Precip ( " mm )
12:52 am 00:52 Mostly Clear 68 20 61 16.1 78 78 S 6 9 30.17 1022 10 16 N/A
1:52 am 01:52 Clear 68 20 61 16.1 78 78 ESE 5 7 30.18 1022 10 16 N/A
2:35 am 02:35 Mostly Cloudy 66 19 63 17 88 88 SE 3 6 30.18 1022 10 16 N/A
2:52 am 02:52 Cloudy 67 19.4 62 16.7 84 84 SSE 3 6 30.18 1022 10 16 N/A
3:07 am 03:07 Cloudy 68 20 63 17 83 83 SSE 8 13 30.18 1022 10 16 N/A
3:40 am 03:40 Cloudy 66 19 63 17 88 88 SE 8 13 30.18 1022 10 16 N/A
3:52 am 03:52 Cloudy with Drizzle 66 18.9 63 17.2 90 90 SSE 6 9 30.18 1022 8 13 N/A
4:52 am 04:52 Cloudy 66 18.9 62 16.7 87 87 SE 5 7 30.19 1022 9 14 N/A
5:52 am 05:52 Cloudy with Drizzle 66 18.9 62 16.7 87 87 SE 5 7 30.21 1023 6 10 N/A
6:39 am 06:39 Cloudy 66 19 63 17 88 88 ENE 3 6 30.21 1023 10 16 N/A
6:43 am 06:43 Cloudy 66 19 63 17 88 88 E 3 6 30.21 1023 8 13 N/A
6:52 am 06:52 Cloudy 66 18.9 62 16.7 87 87 E 5 7 30.22 1024 8 13 N/A
7:24 am 07:24 Cloudy 66 19 63 17 88 88 N N/A 30.24 1024 8 13 N/A
7:36 am 07:36 Cloudy 66 19 63 17 88 88 N N/A 30.24 1024 7 11 N/A
7:52 am 07:52 Cloudy with Drizzle 67 19.4 63 17.2 87 87 N N/A 30.24 1024 6 10 N/A
8:52 am 08:52 Cloudy 70 21.1 64 17.8 82 82 N N/A 30.24 1024 9 14 N/A
9:16 am 09:16 Cloudy 70 21 64 18 83 83 SSW 3 6 30.24 1024 10 16 N/A
9:52 am 09:52 Cloudy 69 20.6 64 17.8 84 84 S 3 6 30.25 1025 10 16 N/A
10:52 am 10:52 Cloudy 71 21.7 64 17.8 79 79 SE 3 6 30.26 1025 10 16 N/A
11:52 am 11:52 Mostly Cloudy 75 23.9 65 18.3 71 71 SSE 5 7 30.25 1024 10 16 N/A
12:19 pm 12:19 Mostly Cloudy 75 24 64 18 69 69 SSE 6 9 30.24 1024 10 16 N/A
12:52 pm 12:52 Mostly Cloudy 77 25 63 17.2 62 62 SSW 5 7 30.24 1024 10 16 N/A
1:52 pm 13:52 Mostly Cloudy 79 26.1 64 17.8 60 60 SSW 8 13 30.22 1023 10 16 N/A
2:52 pm 14:52 Mostly Cloudy 81 27.2 62 16.7 53 53 S 6 9 30.19 1022 10 16 N/A
3:52 pm 15:52 Mostly Cloudy 82 27.8 61 16.1 49 49 S 10 17 30.18 1022 10 16 N/A
4:52 pm 16:52 Mostly Cloudy 82 27.8 62 16.7 51 51 S 12 19 30.16 1021 10 16 N/A
5:52 pm 17:52 Mostly Cloudy 81 27.2 64 17.8 57 57 S 8 13 30.16 1022 10 16 N/A
6:52 pm 18:52 Mostly Cloudy 81 27.2 63 17.2 54 54 SSE 13 20 30.17 1022 10 16 N/A
7:52 pm 19:52 Mostly Cloudy 79 26.1 64 17.8 60 60 SSE 8 13 30.18 1022 10 16 N/A
8:52 pm 20:52 Partly Cloudy 77 25 64 17.8 64 64 SSE 8 13 30.20 1023 10 16 N/A
9:52 pm 21:52 Clear 75 23.9 63 17.2 66 66 SSE 9 15 30.21 1023 10 16 N/A
10:52 pm 22:52 Clear 73 22.8 64 17.8 74 74 S 12 19 30.21 1023 10 16 N/A
11:52 pm 23:52 Clear 72 22.2 66 18.9 82 82 S 12 19 30.21 1023 10 16 N/A

Powered by AerisWeather